Regional Weather Roundup
Issued by NWS Green Bay, WI

Home | Current Version | Previous Version | Graphics & Text | Print | Product List | Glossary Off
Versions: 1 2 3 4 5 6 7 8 9 10 11 12 13 14 15 16 17 18 19 20 21 22 23 24 25 26 27 28 29 30 31 32 33 34 35 36 37 38 39 40 41 42 43 44 45 46 47 48 49 50

000
ASUS43 KGRB 032000
RWRGRB

NORTH-CENTRAL AND NORTHEAST WISCONSIN REGIONAL WEATHER ROUNDUP
NATIONAL WEATHER SERVICE GREEN BAY WI
300 PM CDT THU SEP 03 2015

WIZ005-009-010>012-018-019-032100-
NORTH CENTRAL WISCONSIN

CITY           SKY/WX    TMP DP  RH WIND       PRES   REMARKS
IRONWOOD       SUNNY     77  66  69 NE9       29.95S
MANITOWISH WTR NOT AVBL
ARBOR VITAE    NOT AVBL
EAGLE RIVER    NOT AVBL
LAND O LAKES   NOT AVBL
RHINELANDER    PTSUNNY   78  64  61 VRB3      29.99F
PHILLIPS       MOSUNNY   79  65  61 E6        29.96F
ANTIGO         NOT AVBL
TOMAHAWK       NOT AVBL
MERRILL        PTSUNNY   76  66  71 CALM      29.97F
$$

WIZ013-073-032100-
NORTHEAST WISCONSIN

CITY           SKY/WX    TMP DP  RH WIND       PRES   REMARKS
IRON MOUNTAIN  PTSUNNY   78  64  61 NE7       29.96F
MARINETTE      SUNNY     73  64  73 E12       29.93F
$$

WIZ017-030-035>037-045-032100-
CENTRAL WISCONSIN

CITY           SKY/WX    TMP DP  RH WIND       PRES   REMARKS
MEDFORD        NOT AVBL
WAUSAU         PTSUNNY   77  65  66 E8        29.96F
MOSINEE        CLOUDY    73  66  78 E5        29.99S
MARSHFIELD     CLOUDY    76  64  66 VRB5      29.97F
WISC RAPIDS    MOSUNNY   80  65  59 E6        29.96F
STEVENS POINT  NOT AVBL
WAUPACA        NOT AVBL
SHAWANO        NOT AVBL
CLINTONVILLE   CLOUDY    73  64  73 NE6       29.96S
WAUTOMA        NOT AVBL
$$

WIZ038-039-048-051-032100-
FOX VALLEY

CITY           SKY/WX    TMP DP  RH WIND       PRES   REMARKS
NWS GREEN BAY  CLOUDY    76  67  73 VRB3      29.94S
APPLETON       CLOUDY    73  64  73 N7        29.94
OSHKOSH        CLOUDY    74  66  76 NE8       29.94F
FOND DU LAC    PTSUNNY   76  67  73 NE10      29.95S
$$

WIZ022-050-052-032100-
EAST CENTRAL WISCONSIN

CITY           SKY/WX    TMP DP  RH WIND       PRES   REMARKS
EPHRAIM        CLOUDY    72  66  82 N8        29.94F
STURGEON BAY   PTSUNNY   72  64  78 N13       29.96S
MANITOWOC      NOT AVBL
SHEBOYGAN      CLOUDY    75  67  76 N10       29.93S
$$

LMZ563-521-522-541>543-032100-
LAKESHORE

STATION/POSITION TIME  TEMP    WIND        PRES    VSBY  WAVE
                       AIR SEA DIR/SP/G                  HT/PER
                 (UTC) (F)     (DEG/KT/KT) (MB)    (MI)  (FT/S)
SHEBOYGAN LKSHOR 1900   74     310/  6/  9 1013.4F
KEWAUNEE LKSHORE 1900   74     340/  4/ 10 1012.6F
ALGOMA MARINA    1914          310/ 12/ 17   N/A
NORTHPORT PIER   1900   69     350/  6/  8 1013.9S
N MID LAKE BUOY  1850   68 66   60/ 12/ 14 1013.1F         1/ 4
S GREEN BAY BUOY 1900   67 67   40/ 10/ 14 1015.5F
SISTER BAY LKSHO 1911   69     350/ 14/ 16   N/A
CHAMBERS ISLAND  1900   69     360/  8/  9 1014.6R
MENOMINEE LKSHOR 1900   65      40/  9/ 10 1013.2S
$$


USA.gov is the U.S. government's official web portal to all federal, state and local government web resources and services.